Hanford, CA

10:06 PM PST on February 24, 2018 (GMT -0800)
Hanford Municipal

Weather History for KHJO - January, 2013

Change the Weather History Date:

Wednesday, January 2, 2013

  Actual Average Record
Temperature  
Mean Temperature 39 °F 44 °F  
Max Temperature 52 °F 53 °F 66 °F (2014)
Min Temperature 26 °F 35 °F 26 °F (2013)
Degree Days  
Heating Degree Days 26    
Month to date heating degree days 49  
Since 1 July heating degree days 987  
Cooling Degree Days 0    
Month to date cooling degree days 0  
Year to date cooling degree days 0  
Moisture  
Dew Point 32 °F    
Average Humidity 80    
Maximum Humidity 100    
Minimum Humidity 59    
Precipitation  
Precipitation 0.00 in 0.10 in 1.82 in (2006)
Month to date precipitation 0.00 0.20  
Year to date precipitation 0.00 0.20  
Since 1 July precipitation 2.00  
Snow  
Snow 0.00 in - - ()
Month to date snowfall 0.0  
Since 1 July snowfall 0.0  
Snow Depth 0.00 in    
Sea Level Pressure  
Sea Level Pressure 30.23 in    
Wind  
Wind Speed 2 mph (NE)    
Max Wind Speed 7 mph    
Max Gust Speed -    
Visibility 2 miles    
Events Fog    
T = Trace of Precipitation, MM = Missing Value Source: NWS Daily Summary

Daily Weather History Graph

Daily Weather History Graph

Search for Another Location

Airport or City:

Trip Planner

Search our weather history database for the weather conditions in past years. The results will help you decide how hot, cold, wet, or windy it might be!

Date:

Astronomy

Jan. 02, 2013 Rise Set
Actual Time 7:10 AM PST 4:55 PM PST
Civil Twilight 6:41 AM PST 5:24 PM PST
Nautical Twilight 6:09 AM PST 5:56 PM PST
Astronomical Twilight 5:38 AM PST 6:27 PM PST
Moon 10:22 PM PST (1/2) 10:04 AM PST (1/2)
Length of Visible Light 10h 42m
Length of Day
9h 45m
Waning Gibbous, 74% of the Moon is Illuminated
Jan 2
Waning Gibbous
Jan 4
Last Quarter
Jan 11
New
Jan 18
First Quarter
Jan 26
Full

Hourly Weather History & Observations

Time (PST) Temp. Windchill Dew Point Humidity Pressure Visibility Wind Dir Wind Speed Gust Speed Precip Events Conditions
12:53 AM 35.1 °F 32.2 °F 33.1 °F 92% 30.28 in 4.0 mi NNW 3.5 mph - N/A   Clear
1:53 AM 36.0 °F 33.3 °F 34.0 °F 93% 30.27 in 3.0 mi North 3.5 mph - N/A   Clear
2:09 AM 32.0 °F - 30.2 °F 93% 30.26 in 2.5 mi Calm Calm - N/A   Clear
2:48 AM 30.2 °F - 30.2 °F 100% 30.25 in 0.8 mi Calm Calm - N/A   Clear
2:53 AM 28.9 °F 23.9 °F 28.9 °F 100% 30.26 in 0.2 mi SSW 4.6 mph - N/A Fog Light Freezing Fog
3:02 AM 30.2 °F 26.7 °F 28.4 °F 93% 30.25 in 1.0 mi SW 3.5 mph - N/A   Mist
3:11 AM 30.2 °F 26.7 °F 28.4 °F 93% 30.25 in 1.2 mi WSW 3.5 mph - N/A   Partly Cloudy
4:15 AM 30.2 °F - 28.4 °F 93% 30.24 in 0.5 mi Calm Calm - N/A Fog Light Freezing Fog
4:23 AM 30.2 °F - 28.4 °F 93% 30.23 in 0.2 mi Calm Calm - N/A Fog Light Freezing Fog
4:53 AM 30.0 °F - 27.0 °F 88% 30.24 in 0.2 mi Calm Calm - N/A Fog Light Freezing Fog
5:15 AM 26.6 °F 22.6 °F 26.6 °F 100% 30.23 in 0.5 mi North 3.5 mph - N/A Fog Light Freezing Fog
5:21 AM 28.4 °F - 26.6 °F 93% 30.23 in 1.0 mi Calm Calm - N/A   Clear
5:33 AM 28.4 °F - 24.8 °F 86% 30.23 in 1.0 mi Calm Calm - N/A   Mist
5:39 AM 28.4 °F - 26.6 °F 93% 30.23 in 0.2 mi Calm Calm - N/A Fog Light Freezing Fog
5:53 AM 26.1 °F - 26.1 °F 100% 30.24 in 0.2 mi Calm Calm - N/A Fog Light Freezing Fog
6:53 AM 28.9 °F 25.2 °F 28.0 °F 96% 30.25 in 0.2 mi SE 3.5 mph - N/A Fog Light Freezing Fog
7:53 AM 30.0 °F - 28.9 °F 96% 30.27 in 0.2 mi Calm Calm - N/A Fog Light Freezing Fog
8:53 AM 30.0 °F - 30.0 °F 100% 30.28 in 0.2 mi Calm Calm - N/A Fog Light Freezing Fog
9:53 AM 32.0 °F - 32.0 °F 100% 30.29 in 0.2 mi Calm Calm - N/A Fog Fog
10:29 AM 33.8 °F - 33.8 °F 100% 30.28 in 0.2 mi Calm Calm - N/A Fog Fog
10:53 AM 35.1 °F - 35.1 °F 100% 30.29 in 0.2 mi Calm Calm - N/A Fog Fog
11:19 AM 35.6 °F - 35.6 °F 100% 30.27 in 0.5 mi Calm Calm - N/A Fog Fog
11:40 AM 37.4 °F - 35.6 °F 93% 30.26 in 1.2 mi Calm Calm - N/A   Overcast
11:53 AM 37.9 °F - 36.0 °F 93% 30.27 in 1.5 mi Calm Calm - N/A   Overcast
12:14 PM 39.2 °F - 37.4 °F 93% 30.24 in 2.5 mi Calm Calm - N/A   Mostly Cloudy
12:19 PM 41.0 °F 39.0 °F 37.4 °F 87% 30.24 in 3.0 mi ENE 3.5 mph - N/A   Scattered Clouds
12:53 PM 43.0 °F - 37.9 °F 82% 30.24 in 4.0 mi Calm Calm - N/A   Haze
1:53 PM 46.9 °F - 39.9 °F 77% 30.22 in 6.0 mi Calm Calm - N/A   Haze
3:53 PM 52.0 °F - 37.9 °F 59% 30.20 in 9.0 mi West 3.5 mph - N/A   Clear
4:53 PM 48.0 °F - 37.0 °F 66% 30.20 in 8.0 mi Calm Calm - N/A   Clear
5:53 PM 42.1 °F - 37.9 °F 85% 30.20 in 5.0 mi North - - N/A   Clear
6:53 PM 35.1 °F 32.2 °F 33.1 °F 92% 30.20 in 3.0 mi SE 3.5 mph - N/A   Clear
6:59 PM 35.6 °F - 35.6 °F 100% 30.19 in 1.8 mi Calm Calm - N/A   Clear
7:25 PM 35.6 °F - 35.6 °F 100% 30.19 in 0.8 mi Calm Calm - N/A   Clear
8:53 PM 34.0 °F - 33.1 °F 96% 30.20 in 0.2 mi Calm Calm - N/A Fog Fog
9:06 PM 35.6 °F - 33.8 °F 93% 30.19 in 1.5 mi Calm Calm - N/A   Clear
9:08 PM 35.6 °F - 33.8 °F 93% 30.19 in 3.0 mi Calm Calm - N/A   Clear
9:16 PM 35.6 °F - 33.8 °F 93% 30.19 in 1.8 mi Calm Calm - N/A   Clear
9:27 PM 35.6 °F - 33.8 °F 93% 30.19 in 0.2 mi Calm Calm - N/A Fog Fog
9:45 PM 33.8 °F - 33.8 °F 100% 30.20 in 0.5 mi Calm Calm - N/A Fog Fog
9:53 PM 32.0 °F - 30.9 °F 96% 30.21 in 0.2 mi Calm Calm - N/A Fog Fog
10:07 PM 32.0 °F 27.5 °F 30.2 °F 93% 30.19 in 0.2 mi ENE 4.6 mph - N/A Fog Fog
10:12 PM 32.0 °F 26.4 °F 30.2 °F 93% 30.19 in 1.0 mi NE 5.8 mph - N/A   Mist
10:30 PM 32.0 °F 25.6 °F 30.2 °F 93% 30.20 in 0.5 mi ENE 6.9 mph - N/A Fog Fog
10:37 PM 32.0 °F 26.4 °F 30.2 °F 93% 30.20 in 0.2 mi NE 5.8 mph - N/A Fog Fog
10:53 PM 30.9 °F 26.2 °F 30.0 °F 96% 30.21 in 0.2 mi NE 4.6 mph - N/A Fog Light Freezing Fog
11:03 PM 30.2 °F 25.4 °F 28.4 °F 93% 30.19 in 0.2 mi NE 4.6 mph - N/A Fog Light Freezing Fog
11:30 PM 30.2 °F - 30.2 °F 100% 30.20 in 0.5 mi Calm Calm - N/A Fog Light Freezing Fog
11:39 PM 30.2 °F - 30.2 °F 100% 30.20 in 0.2 mi Calm Calm - N/A Fog Light Freezing Fog
11:53 PM 30.0 °F - 28.9 °F 96% 30.21 in 0.2 mi Calm Calm - N/A Fog Light Freezing Fog